Back to catalog

STARLINK-34897

AliveCommunicationsVLEO
NORAD 65212·PAYLOAD·🇺🇸 United States

Launched Aug 14, 2025 from Cape Canaveral Space Force Station

Loading…

Next Passes (next 24 hours)

TLE

FreshSource: CelesTrak SupGP

Epoch: Sep 14, 2026, 21:14 UTC

1 65212C 25176Q   26257.88520833 -.00003566  00000+0 -10537-3 0  2573
2 65212  53.1589 349.9185 0001096  84.3405 281.1993 15.34385981    19

Track STARLINK-34897 in real time with AllMySat

Download on the App Store